Probability
0 0 0 0 0 0 0 0 0 0 0 0 0 0 0 0 0 0 0 0 0 0 0 0 0 0 0 0 0 0 0 0 0 0 0 0 0 0 0 0 0 0 0 0
0 0 0 0 0 0 0 0 0 0 0 0 0 0 0 0 0 0 0 0 0 0 0 0 0 0 0 0 0 0 0 0 0 0 0 0 0 0 0 0 0 0 0 0
0 0 0 0 0 0 0 0 0 0 0 0 0 0 0 0 0 0 0 0 0 0 0 0 0 0 0 0 0 0 0 0 0 0 0 0 0 0 0 0 0 0 0 0
0 0 0 0 0 0 0 0 0 0 0 0 0 0 0 0 0 0 0 0 0 0 0 0 0 0 0 0 0 0 0 0 0 0 0 0 0 0 0 0 0 0 0 0
0 0 0 0 0 0 0 0 0 0 0 0 0 0 0 0 0 0 0 0 0 0 0 0 0 0 0 0 0 0 0 0 0 0 0 0 0 0 0 0 0 0 0 0
0 0 0 0 0 0 0 0 0 0 0 0 0 0 0 0 0 0 0 0 0 0 0 0 0 0 0 0 0 0 0 0 0 0 0 0 0 0 0 0 0 0 0 0
0 0 0 0 0 0 0 0 0 0 0 0 0 0 0 0 0 0 0 0 0 0 0 0 0 0 0 0 0 0 0 0 0 0 0 0 0 0 0 0 0 0 0 0
0 0 0 0 0 0 0 0 0 0 0 0 0 0 0 0 0 0 0 0 0 0 0 0 0 0 0 0 0 0 0 0 0 0 0 0 0 0 0 0 0 0 0 0
0 0 0 0 0 0 0 0 0 0 0 0 0 0 0 0 0 0 0 0 0 0 0 0 0 0 0 0 0 0 0 0 0 0 0 0 0 0 0 0 0 0 0 0
0 0 0 0 0 0 0 0 0 0 0 0 0 0 0 0 0 0 0 0 0 0 0 0 0 0 0 0 0 0 0 0 0 0 0 0 0 0 0 0 0 0 0 0
0 0 0 0 0 0 0 0 0 0 0 0 0 0 0 0 0 0 0 0 0 0 0 0 0 0 0 0 0 0 0 0 0 0 0 0 0 0 0 0 0 0 0 0
0 0 0 0 0 0 0 0 0 0 0 0 0 0 0 0 0 0 0 0 0 0 0 0 0 0 0 0 0 0 0 0 0 0 0 0 0 0 0 0 0 0 0 0
0 0 0 0 0 0 0 0 0 0 0 0 0 0 0 0 0 0 0 0 0 0 0 0 0 0 0 0 0 0 0 0 0 0 0 0 0 0 0 0 0 0 0 0
0 0 0 0 0 0 0 0 0 0 0 0 0 0 0 0 0 0 0 0 0 0 0 0 0 0 0 0 0 0 0 0 0 0 0 0 0 0 0 0 0 0 0 0
0 0 0 0 0 0 0 0 0 0 0 0 0 0 0 0 0 0 0 0 0 0 0 0 0 0 0 0 0 0 0 0 0 0 0 0 0 0 0 0 0 0 0 0
0 0 0 0 0 0 0 0 0 0 0 0 0 0 0 0 0 0 0 0 0 0 0 0 0 0 0 0 0 0 0 0 0 0 0 0 0 0 0 0 0 0 0 0
0 0 0 0 0 0 0 0 0 0 0 0 0 0 0 0 0 0 0 0 0 0 0 0 0 0 0 0 0 0 0 0 0 0 0 0 0 0 0 0 0 0 0 0
0 0 0 0 0 0 0 0 0 0 0 0 0 0 0 0 0 0 0 0 0 0 0 0 0 0 0 0 0 0 0 0 0 0 0 0 0 0 0 0 0 0 0 0
0 0 0 0 0 0 0 0 0 0 0 0 0 0 0 0 0 0 0 0 0 0 0 0 0 0 0 0 0 0 0 0 0 0 0 0 0 0 0 0 0 0 0 0
0 0 0 0 0 0 0 0 0 0 0 0 0 0 0 0 0 0 0 0 0 0 0 0 0 0 0 0 0 0 0 0 0 0 0 0 0 0 0 0 0 0 0 0
0 0 0 0 0 0 0 0 0 0 0 0 0 0 0 0 0 0 0 0 0 0 0 0 0 0 0 0 0 0 0 0 0 0 0 0 0 0 0 0 0 0 0 0
0 0 0 0 0 0 0 0 0 0 0 0 0 0 0 0 0 0 0 0 0 0 0 0 0 0 0 0 0 0 0 0 0 0 0 0 0 0 0 0 0 0 0 0
0 0 0 0 0 0 0 0 0 0 0 0 0 0 0 0 0 0 0 0 0 0 0 0 0 0 0 0 0 0 0 0 0 0 0 0 0 0 0 0 0 0 0 0
0 0 0 0 0 0 0 0 0 0 0 0 0 0 0 0 0 0 0 0 0 0 0 0 0 0 0 0 0 0 0 0 0 0 0 0 0 0 0 0 0 0 0 0
0 0 0 0 0 0 0 0 0 0 0 0 0 0 0 0 0 0 0 0 0 0 0 0 0 0 0 0 0 0 0 0 0 0 0 0 0 0 0 0 0 0 0 0
0 0 0 0 0 0 0 0 0 0 0 0 0 0 0 0 0 0 0 0 0 0 0 0 0 0 0 0 0 0 0 0 0 0 0 0 0 0 0 0 0 0 0 0
0 0 0 0 0 0 0 0 0 0 0 0 0 0 0 0 0 0 0 0 0 0 0 0 0 0 0 0 0 0 0 0 0 0 0 0 0 0 0 0 0 0 0 0
Height
5822 5822 5821 5820 5819 5818 5817 5816 5815 5815 5814 5813 5811 5810 5809 5807 5806 5805 5805 5805 5805 5805 5806 5806 5807 5808 5809 5810 5810 5810 5810 5809 5809 5808 5806 5805 5803 5801 5799 5797 5795 5793 5790 5788
5819 5819 5818 5817 5816 5814 5813 5812 5811 5810 5809 5808 5806 5805 5804 5803 5802 5801 5801 5800 5800 5800 5801 5802 5802 5803 5804 5805 5806 5806 5806 5806 5806 5805 5804 5803 5801 5800 5798 5796 5794 5792 5790 5788
5816 5815 5813 5814 5812 5810 5809 5808 5807 5805 5805 5803 5802 5800 5798 5798 5797 5797 5796 5796 5795 5795 5796 5797 5797 5798 5799 5800 5801 5802 5802 5802 5802 5802 5801 5800 5799 5798 5796 5794 5793 5791 5789 5787
5811 5811 5809 5812 5808 5806 5804 5803 5802 5801 5799 5799 5798 5795 5793 5793 5792 5792 5791 5791 5790 5790 5791 5791 5792 5793 5794 5795 5796 5796 5797 5798 5798 5798 5797 5797 5796 5795 5794 5792 5791 5789 5787 5786
5806 5804 5804 5805 5802 5800 5798 5796 5795 5795 5794 5793 5792 5790 5788 5788 5787 5787 5786 5785 5785 5785 5785 5785 5786 5787 5788 5789 5790 5791 5792 5792 5793 5793 5793 5793 5792 5792 5791 5790 5788 5787 5785 5784
5800 5798 5797 5798 5795 5794 5793 5789 5788 5788 5787 5786 5786 5784 5783 5782 5781 5781 5780 5779 5779 5779 5779 5779 5780 5780 5781 5782 5783 5785 5785 5786 5787 5788 5788 5788 5788 5787 5787 5786 5785 5784 5782 5781
5794 5792 5790 5788 5788 5787 5786 5783 5780 5780 5779 5778 5778 5777 5776 5775 5774 5774 5774 5773 5772 5772 5772 5772 5773 5773 5774 5775 5776 5777 5778 5779 5780 5781 5782 5782 5782 5782 5782 5781 5781 5780 5779 5778
5786 5784 5784 5780 5779 5779 5777 5773 5771 5771 5770 5769 5769 5768 5767 5767 5766 5766 5766 5766 5765 5765 5765 5765 5765 5766 5766 5767 5768 5770 5771 5772 5773 5774 5775 5775 5776 5776 5776 5776 5776 5775 5774 5773
5779 5778 5774 5771 5769 5768 5766 5764 5762 5761 5760 5760 5759 5758 5758 5757 5757 5757 5756 5757 5756 5756 5756 5757 5757 5758 5758 5759 5760 5761 5763 5764 5765 5766 5767 5768 5769 5769 5770 5770 5770 5769 5769 5768
5768 5768 5764 5759 5757 5756 5755 5753 5751 5750 5749 5748 5747 5747 5747 5746 5746 5746 5746 5746 5746 5746 5747 5747 5748 5748 5749 5749 5750 5752 5754 5755 5756 5757 5759 5760 5761 5762 5762 5763 5763 5763 5763 5762
5757 5756 5752 5749 5746 5744 5742 5741 5739 5738 5736 5735 5734 5734 5734 5734 5734 5734 5734 5734 5734 5735 5736 5736 5737 5738 5739 5739 5740 5742 5744 5745 5747 5748 5750 5751 5752 5753 5754 5755 5755 5756 5756 5755
5745 5742 5739 5737 5733 5730 5729 5727 5725 5724 5722 5720 5719 5719 5719 5719 5719 5720 5720 5720 5721 5722 5723 5724 5725 5726 5727 5728 5730 5731 5733 5735 5736 5738 5740 5741 5743 5744 5745 5746 5747 5747 5747 5748
5730 5727 5725 5722 5719 5716 5713 5712 5710 5708 5706 5704 5703 5702 5702 5702 5703 5704 5705 5705 5706 5707 5708 5710 5711 5713 5715 5716 5717 5719 5721 5723 5725 5727 5729 5731 5733 5734 5735 5737 5737 5738 5739 5739
5715 5712 5709 5706 5703 5700 5698 5695 5693 5691 5689 5687 5686 5685 5684 5685 5685 5686 5687 5688 5689 5691 5693 5695 5697 5699 5701 5702 5704 5706 5708 5711 5713 5715 5718 5719 5722 5724 5725 5726 5728 5728 5729 5730
5700 5696 5693 5690 5687 5684 5681 5678 5676 5674 5671 5669 5668 5667 5666 5666 5667 5668 5669 5670 5671 5674 5676 5678 5680 5683 5685 5687 5689 5692 5694 5697 5700 5703 5705 5707 5710 5712 5714 5716 5717 5718 5719 5720
5683 5680 5676 5673 5671 5667 5664 5661 5659 5656 5654 5652 5650 5649 5647 5647 5647 5648 5650 5651 5653 5655 5658 5660 5663 5666 5668 5671 5674 5677 5680 5683 5686 5689 5692 5695 5697 5700 5702 5704 5706 5708 5709 5710
5666 5663 5660 5657 5653 5650 5647 5644 5641 5638 5636 5634 5632 5630 5629 5628 5628 5629 5630 5631 5633 5636 5638 5641 5645 5648 5651 5654 5657 5661 5664 5668 5671 5674 5678 5681 5684 5687 5690 5692 5694 5696 5698 5699
5648 5646 5642 5639 5636 5633 5630 5627 5624 5621 5618 5616 5614 5612 5610 5610 5609 5609 5610 5611 5613 5616 5618 5621 5625 5628 5632 5636 5640 5643 5647 5652 5656 5660 5664 5667 5671 5674 5677 5679 5682 5684 5686 5688
5631 5628 5625 5622 5619 5616 5613 5610 5606 5604 5601 5598 5596 5594 5593 5591 5590 5590 5590 5592 5593 5595 5598 5600 5604 5608 5612 5617 5621 5625 5630 5635 5639 5644 5648 5652 5656 5660 5663 5666 5669 5672 5674 5675
5615 5612 5609 5606 5603 5600 5597 5593 5590 5588 5585 5582 5579 5577 5575 5573 5571 5570 5571 5572 5573 5574 5577 5580 5583 5587 5592 5596 5601 5606 5611 5617 5622 5627 5632 5637 5641 5645 5649 5652 5656 5658 5661 5663
5599 5596 5593 5590 5587 5584 5581 5577 5574 5572 5569 5566 5563 5560 5558 5556 5554 5552 5552 5553 5554 5554 5556 5559 5563 5567 5572 5576 5581 5586 5592 5598 5604 5609 5615 5621 5625 5630 5634 5638 5641 5645 5648 5650
5583 5580 5577 5574 5571 5568 5565 5562 5559 5556 5553 5550 5547 5543 5541 5539 5537 5536 5535 5535 5536 5536 5538 5541 5544 5548 5552 5556 5561 5567 5573 5579 5586 5592 5598 5604 5609 5614 5619 5623 5627 5630 5633 5636
5567 5564 5561 5558 5555 5553 5550 5547 5543 5540 5537 5535 5531 5528 5525 5523 5521 5520 5520 5519 5519 5520 5521 5524 5526 5530 5533 5538 5543 5549 5555 5561 5568 5575 5581 5587 5593 5598 5603 5608 5612 5615 5619 5622
5551 5548 5546 5543 5540 5537 5535 5532 5528 5525 5522 5520 5517 5513 5510 5508 5507 5505 5503 5503 5503 5504 5506 5508 5510 5513 5516 5521 5526 5532 5538 5544 5551 5557 5564 5570 5576 5582 5587 5592 5596 5600 5604 5607
5536 5533 5530 5527 5524 5522 5519 5517 5514 5511 5508 5505 5503 5500 5497 5494 5493 5491 5490 5489 5489 5490 5491 5493 5495 5497 5501 5505 5510 5516 5522 5528 5535 5541 5548 5554 5560 5566 5571 5576 5581 5586 5589 5593
5520 5518 5515 5513 5510 5507 5504 5502 5499 5497 5494 5492 5489 5487 5484 5482 5480 5478 5477 5477 5477 5477 5478 5480 5482 5484 5487 5491 5496 5501 5507 5513 5519 5526 5532 5539 5545 5550 5556 5561 5566 5571 5575 5578
5506 5503 5501 5499 5496 5493 5490 5488 5486 5484 5481 5478 5476 5474 5472 5470 5468 5467 5465 5465 5465 5465 5466 5467 5469 5471 5474 5478 5483 5487 5493 5499 5505 5512 5518 5524 5530 5536 5542 5547 5552 5556 5560 5563
Wind_Speed
12 15 18 19 20 21 21 20 21 19 20 21 23 24 23 22 22 21 20 19 19 18 19 19 19 18 17 16 15 14 13 13 12 12 12 12 13 13 13 13 13 13 12 12
12 14 17 18 18 20 20 21 21 22 21 21 22 22 22 21 21 21 20 20 20 19 20 20 20 20 19 17 17 16 15 14 13 13 12 12 13 13 13 13 13 12 12 11
15 16 18 17 18 20 21 22 22 23 22 22 22 23 23 22 21 21 21 21 21 21 21 21 21 21 21 20 19 18 17 16 15 14 13 13 13 13 13 13 13 12 12 11
19 19 20 18 21 22 23 24 24 24 24 23 23 24 24 22 22 21 21 22 22 22 23 23 23 23 23 22 21 20 19 18 17 16 15 14 14 13 13 13 13 12 12 12
22 23 23 22 23 23 25 27 26 25 24 24 24 25 26 23 22 22 22 23 23 23 24 24 24 24 24 24 23 22 21 20 19 18 17 16 16 15 14 13 13 13 13 12
25 26 27 27 26 25 27 30 29 27 26 26 25 26 27 26 25 24 24 24 24 25 25 25 26 26 26 25 25 24 24 23 22 21 20 19 18 17 16 15 14 14 14 13
29 30 30 32 31 30 32 34 33 31 30 30 29 29 29 28 28 27 26 26 26 27 27 27 27 28 28 28 27 26 26 25 24 23 22 21 20 19 18 17 17 16 15 15
33 34 35 36 35 34 35 37 37 36 35 34 33 32 32 31 31 30 30 29 29 29 29 29 29 29 29 29 29 29 28 28 27 26 25 24 23 22 21 20 19 18 17 16
36 37 39 40 40 39 39 40 41 40 39 38 37 36 36 35 35 34 33 33 32 32 31 31 31 31 31 31 31 30 30 30 29 29 28 27 26 25 24 23 22 21 20 19
39 38 40 43 43 43 43 43 44 44 43 43 41 40 39 39 39 38 37 36 35 35 35 34 34 33 33 34 34 33 32 31 31 31 30 29 28 27 26 26 25 24 22 21
43 43 44 45 46 46 46 45 45 45 46 46 46 44 43 42 42 42 41 40 39 38 37 37 37 36 36 36 35 35 34 34 33 33 32 32 31 30 29 28 27 26 25 24
46 47 48 48 50 50 50 49 48 48 49 49 49 48 46 46 45 45 45 44 43 42 41 40 40 39 38 38 37 37 36 36 35 35 35 34 33 32 31 30 30 29 28 27
50 51 52 52 53 53 53 52 51 51 51 51 51 50 50 49 48 48 47 47 47 46 45 43 43 42 41 40 40 39 38 38 38 37 36 36 35 34 34 33 32 31 30 29
53 54 54 54 54 54 54 53 53 53 53 53 53 53 52 52 51 51 50 50 50 49 48 47 46 45 43 43 42 42 41 40 40 39 38 38 37 36 35 35 34 33 32 31
55 56 56 56 55 55 55 54 53 53 53 54 54 54 53 53 53 53 53 53 52 52 51 50 49 47 46 45 45 44 44 43 42 41 40 39 39 38 37 36 35 34 33 32
56 56 56 56 56 56 55 55 55 54 54 54 54 54 54 54 54 54 54 54 54 54 53 53 52 51 49 48 47 47 46 45 44 43 42 41 41 40 39 38 37 36 35 34
56 56 56 56 56 56 56 56 56 56 55 54 53 53 52 53 53 53 54 54 54 55 55 55 54 53 52 51 50 49 48 48 47 46 45 43 42 41 40 39 38 37 36 36
57 56 56 56 56 55 55 55 55 54 53 53 52 52 52 52 53 53 54 54 55 55 56 56 56 56 54 53 52 52 51 50 49 48 46 45 44 43 42 41 40 39 38 37
55 55 54 54 54 53 53 52 52 52 51 51 51 52 52 52 53 54 54 54 55 56 56 57 57 57 56 55 54 54 53 52 51 50 49 47 46 46 44 43 42 41 40 39
53 53 53 52 52 52 51 51 51 51 51 51 51 51 51 52 52 53 53 53 53 55 56 57 57 57 57 56 56 55 55 54 53 52 52 50 49 47 46 45 44 42 41 40
53 52 52 51 51 50 50 50 50 50 49 50 50 51 51 50 50 50 50 49 49 51 53 54 55 55 55 55 56 56 56 56 55 54 53 52 51 49 48 47 46 44 43 43
52 52 51 50 50 50 49 49 49 49 49 49 49 49 49 48 47 47 46 47 46 47 49 50 51 52 53 54 54 55 55 56 56 55 54 53 53 51 50 48 47 46 45 44
51 51 50 50 50 49 49 49 49 48 48 48 47 46 45 45 45 45 44 44 44 44 45 45 47 49 51 53 53 53 54 55 55 55 54 53 53 53 52 51 50 48 47 46
50 50 50 50 49 49 48 48 48 48 47 46 45 44 43 43 42 42 42 42 42 42 42 43 44 46 48 50 51 52 52 54 54 53 53 53 53 53 52 51 50 49 48 48
49 49 49 48 48 48 48 47 47 46 45 44 43 42 42 42 41 40 39 38 38 39 39 39 40 42 44 46 47 48 49 51 52 52 52 52 52 52 53 52 50 49 49 48
48 47 47 47 47 47 47 46 45 43 43 42 42 41 41 40 39 38 37 36 36 35 35 36 37 38 39 41 43 44 46 48 49 49 50 50 51 51 51 50 49 48 48 48
46 46 46 45 45 44 44 43 42 41 41 41 40 39 39 38 38 37 36 35 34 34 34 33 34 35 35 37 39 41 43 45 46 47 47 48 49 50 49 48 48 48 47 47
Wind_Direction
281 284 287 290 294 296 297 296 295 293 289 288 287 290 292 291 289 288 285 278 271 264 262 259 257 259 261 267 273 279 286 293 301 310 318 326 332 337 341 344 346 349 353 357
296 295 296 298 298 298 298 297 296 296 294 293 293 294 294 290 287 285 283 278 273 265 261 259 257 257 259 262 266 272 277 284 290 298 306 315 323 330 334 338 341 344 346 349
301 296 297 303 303 301 302 299 296 296 296 294 294 294 293 290 287 284 281 278 273 268 262 258 256 256 258 259 261 266 269 274 281 287 294 302 310 318 324 330 334 337 340 342
303 300 299 304 298 299 297 296 296 297 297 296 294 291 290 290 287 283 280 277 272 268 264 261 258 256 257 258 258 260 264 267 272 278 284 291 298 305 312 318 324 327 330 333
302 301 301 300 298 300 297 296 296 297 297 295 292 289 289 290 287 283 279 277 273 269 266 263 261 258 257 257 257 258 260 262 266 270 276 281 287 294 300 306 311 316 320 324
301 299 300 299 299 298 294 292 297 297 294 292 290 287 287 288 285 283 280 277 274 270 267 264 262 261 259 257 256 256 257 259 261 265 269 273 278 283 289 294 299 305 310 314
297 296 295 295 298 296 291 293 296 295 293 291 288 286 284 282 280 279 277 275 273 271 268 265 263 262 260 259 257 256 256 258 259 261 264 268 271 275 279 284 289 294 300 304
295 293 291 296 295 293 291 291 291 291 290 289 287 285 283 281 279 276 273 272 271 269 267 265 263 262 261 260 258 257 257 257 258 259 261 263 266 270 273 276 281 285 290 295
290 289 291 291 290 289 288 288 289 289 288 286 285 283 282 280 278 276 273 271 269 267 266 264 263 261 261 260 259 258 257 257 257 258 259 261 263 266 268 271 274 278 282 287
290 288 287 287 288 288 287 287 287 287 286 284 282 280 278 277 276 274 273 271 269 267 265 263 261 260 260 259 259 258 257 257 257 257 258 259 261 263 265 267 270 273 277 280
288 287 285 285 286 287 287 286 286 285 284 282 281 279 277 275 273 271 270 269 268 267 265 263 261 259 258 258 258 258 257 257 257 257 258 259 260 262 264 265 267 270 273 276
289 287 286 286 286 287 287 287 286 284 283 282 280 279 276 273 271 269 267 266 265 264 264 262 261 259 258 257 257 257 256 256 256 256 257 258 259 261 262 264 265 267 270 273
288 288 287 287 286 287 288 287 286 285 283 282 280 278 276 273 271 268 266 264 262 261 260 260 260 259 257 256 256 256 256 256 255 255 256 257 258 259 261 262 264 266 268 271
288 288 287 287 287 287 287 286 286 285 284 282 280 278 276 273 271 268 266 263 261 260 258 257 257 257 256 255 255 254 254 254 254 255 255 256 257 258 259 261 263 265 267 270
289 288 288 287 287 287 287 287 286 285 284 283 282 280 277 274 271 268 266 263 261 260 258 256 254 254 254 253 253 253 252 252 253 254 254 255 256 256 257 259 262 264 266 269
289 289 288 288 287 287 287 287 287 287 286 285 283 281 278 275 273 270 267 264 262 259 258 256 254 252 251 251 251 251 250 250 250 251 252 253 254 256 257 258 260 262 264 267
289 289 288 288 288 287 287 288 288 288 287 286 284 281 279 277 274 271 268 265 263 260 258 256 253 251 250 250 249 249 249 248 248 249 250 251 253 254 256 257 259 260 262 265
289 289 289 289 288 288 289 289 289 288 287 286 284 283 281 278 275 272 269 265 262 260 258 256 254 251 249 248 248 247 246 247 247 248 248 249 251 252 254 255 257 259 261 264
290 290 290 289 289 289 290 289 289 288 287 286 286 284 283 280 278 275 271 268 264 261 258 256 255 252 249 247 246 246 245 245 245 245 246 247 249 250 252 254 256 258 260 263
291 291 290 289 289 289 290 290 289 288 287 287 287 285 284 282 280 277 274 270 267 262 259 256 254 252 250 247 245 244 243 243 243 244 245 246 247 248 250 252 254 256 259 261
291 291 290 289 289 289 290 290 290 289 288 288 288 287 285 283 281 279 276 272 268 264 260 257 254 251 249 246 244 242 242 241 242 242 243 244 245 246 247 250 252 254 257 260
290 290 289 289 288 289 289 289 289 289 289 288 288 288 286 284 282 280 278 274 270 266 261 257 254 251 248 246 244 242 240 240 240 241 242 243 244 245 246 248 250 253 256 259
289 289 289 289 288 288 289 289 288 288 289 289 288 288 288 286 284 282 279 275 271 267 263 258 255 252 248 245 243 242 240 239 239 239 240 241 242 244 246 247 249 251 254 257
289 289 289 288 288 288 288 288 288 288 289 289 289 288 288 287 285 283 280 276 271 267 263 259 257 253 249 245 243 241 240 238 237 237 238 240 241 242 244 246 247 250 253 256
289 289 288 288 288 287 287 288 287 288 289 290 290 290 289 288 286 282 279 276 272 267 264 260 257 254 249 246 243 241 240 239 238 237 237 238 240 242 244 245 248 251 253 256
289 288 288 288 288 287 287 287 287 287 288 289 289 289 288 287 285 284 280 276 272 268 265 261 257 254 249 245 242 240 238 237 237 236 237 238 239 241 244 245 247 250 253 255
288 288 288 289 288 287 286 287 288 289 289 289 289 288 287 286 284 283 281 277 273 269 266 262 258 254 248 242 241 239 237 236 236 236 235 236 238 240 242 244 247 249 252 255